| time (UTC) | temp F | wind direction | speed MPH | gust MPH | rain 1hr in | rain 24hr in | rain mn in | humidity % | barometer mb |
| 20260901144606 | 67 | 0 | 0.0 | 3.0 | 0.00 | 0.00 | 0.00 | 80 | 1015.4 |
| 20260901143102 | 65 | 0 | 0.0 | 3.0 | 0.00 | 0.00 | 0.00 | 87 | 1015.4 |
| 20260901141602 | 64 | 0 | 0.0 | 4.0 | 0.00 | 0.00 | 0.00 | 90 | 1015.5 |
| 20260901140105 | 63 | 210 | 1.0 | 4.0 | 0.00 | 0.00 | 0.00 | 92 | 1015.6 |
| 20260901134605 | 63 | 239 | 0.0 | 3.0 | 0.00 | 0.00 | 0.00 | 93 | 1015.5 |
| 20260901133109 | 62 | 0 | 0.0 | 1.0 | 0.00 | 0.00 | 0.00 | 93 | 1015.6 |
| 20260901131602 | 61 | 61 | 0.0 | 1.0 | 0.00 | 0.00 | 0.00 | 93 | 1015.3 |
| 20260901130107 | 59 | 0 | 0.0 | 0.0 | 0.00 | 0.00 | 0.00 | 92 | 1015.0 |
| 20260901124606 | 58 | 0 | 0.0 | 0.0 | 0.00 | 0.00 | 0.00 | 91 | 1014.9 |
| 20260901123101 | 58 | 0 | 0.0 | 1.0 | 0.00 | 0.00 | 0.00 | 91 | 1014.9 |
| 20260901121608 | 58 | 0 | 0.0 | 0.0 | 0.00 | 0.00 | 0.00 | 90 | 1014.7 |
| 20260901120103 | 58 | 0 | 0.0 | 0.0 | 0.00 | 0.00 | 0.00 | 89 | 1014.5 |
| 20260901114603 | 58 | 0 | 0.0 | 0.0 | 0.00 | 0.00 | 0.00 | 89 | 1014.3 |
| 20260901113104 | 58 | 0 | 0.0 | 0.0 | 0.00 | 0.00 | 0.00 | 89 | 1014.2 |
| 20260901111612 | 58 | 0 | 0.0 | 0.0 | 0.00 | 0.00 | 0.00 | 89 | 1014.1 |
| 20260901110113 | 58 | 0 | 0.0 | 0.0 | 0.00 | 0.00 | 0.00 | 88 | 1013.9 |
| 20260901104606 | 58 | 0 | 0.0 | 1.0 | 0.00 | 0.00 | 0.00 | 88 | 1013.8 |
| 20260901103107 | 59 | 0 | 0.0 | 0.0 | 0.00 | 0.00 | 0.00 | 88 | 1013.8 |
| 20260901101606 | 59 | 0 | 0.0 | 1.0 | 0.00 | 0.00 | 0.00 | 87 | 1013.9 |
| 20260901100105 | 59 | 0 | 0.0 | 1.0 | 0.00 | 0.00 | 0.00 | 87 | 1013.7 |
| 20260901094605 | 59 | 0 | 0.0 | 0.0 | 0.00 | 0.00 | 0.00 | 87 | 1013.7 |
| 20260901093103 | 60 | 0 | 0.0 | 0.0 | 0.00 | 0.00 | 0.00 | 87 | 1013.5 |
| 20260901091607 | 60 | 0 | 0.0 | 0.0 | 0.00 | 0.00 | 0.00 | 86 | 1013.5 |
| 20260901090116 | 60 | 0 | 0.0 | 0.0 | 0.00 | 0.00 | 0.00 | 86 | 1013.5 |
| 20260901084608 | 61 | 0 | 0.0 | 1.0 | 0.00 | 0.00 | 0.00 | 86 | 1013.6 |
| 20260901083112 | 61 | 0 | 0.0 | 0.0 | 0.00 | 0.00 | 0.00 | 86 | 1013.5 |
| 20260901081603 | 62 | 0 | 0.0 | 2.0 | 0.00 | 0.00 | 0.00 | 86 | 1013.3 |
| 20260901080114 | 62 | 0 | 0.0 | 2.0 | 0.00 | 0.00 | 0.00 | 85 | 1013.4 |
| 20260901074601 | 62 | 0 | 0.0 | 0.0 | 0.00 | 0.00 | 0.00 | 85 | 1013.4 |
| 20260901073102 | 62 | 0 | 0.0 | 0.0 | 0.00 | 0.00 | 0.00 | 84 | 1013.4 |
| 20260901071606 | 62 | 0 | 0.0 | 0.0 | 0.00 | 0.00 | 0.00 | 84 | 1013.6 |
| 20260901070106 | 63 | 0 | 0.0 | 2.0 | 0.00 | 0.00 | 0.00 | 83 | 1013.6 |
| 20260901064611 | 63 | 0 | 0.0 | 0.0 | 0.00 | 0.00 | 0.00 | 82 | 1013.7 |
| 20260901063141 | 63 | 0 | 0.0 | 0.0 | 0.00 | 0.00 | 0.00 | 82 | 1013.8 |
| 20260901061613 | 63 | 0 | 0.0 | 0.0 | 0.00 | 0.00 | 0.00 | 80 | 1013.9 |
| 20260901060104 | 64 | 0 | 0.0 | 0.0 | 0.00 | 0.00 | 0.00 | 79 | 1014.0 |
| 20260901054604 | 64 | 0 | 0.0 | 0.0 | 0.00 | 0.00 | 0.00 | 78 | 1013.9 |
| 20260901053116 | 65 | 0 | 0.0 | 0.0 | 0.00 | 0.00 | 0.00 | 77 | 1014.0 |
| 20260901051603 | 65 | 0 | 0.0 | 0.0 | 0.00 | 0.00 | 0.00 | 76 | 1014.0 |
| 20260901044607 | 67 | 0 | 0.0 | 0.0 | 0.00 | 0.00 | 0.00 | 74 | 1013.8 |
| 20260901043103 | 67 | 0 | 0.0 | 0.0 | 0.00 | 0.00 | 0.00 | 72 | 1013.8 |
| 20260901041606 | 68 | 0 | 0.0 | 0.0 | 0.00 | 0.00 | 0.00 | 70 | 1013.6 |
| 20260901040104 | 69 | 0 | 0.0 | 0.0 | 0.00 | 0.00 | 0.00 | 69 | 1013.5 |
| 20260901034559 | 70 | 0 | 0.0 | 0.0 | 0.00 | 0.00 | 0.00 | 67 | 1013.5 |
| 20260901033102 | 71 | 0 | 0.0 | 0.0 | 0.00 | 0.00 | 0.00 | 66 | 1013.4 |
| 20260901031602 | 72 | 0 | 0.0 | 0.0 | 0.00 | 0.00 | 0.00 | 64 | 1013.4 |
| 20260901030100 | 73 | 0 | 0.0 | 0.0 | 0.00 | 0.00 | 0.00 | 62 | 1013.3 |
| 20260901024603 | 74 | 0 | 0.0 | 1.0 | 0.00 | 0.00 | 0.00 | 60 | 1013.1 |
| 20260901023107 | 75 | 0 | 0.0 | 1.0 | 0.00 | 0.00 | 0.00 | 58 | 1013.0 |
| 20260901021602 | 76 | 0 | 0.0 | 0.0 | 0.00 | 0.00 | 0.00 | 56 | 1013.0 |
| 20260901020059 | 77 | 0 | 0.0 | 1.0 | 0.00 | 0.00 | 0.00 | 54 | 1012.9 |
| 20260901014600 | 78 | 0 | 0.0 | 0.0 | 0.00 | 0.00 | 0.00 | 52 | 1012.7 |
| 20260901013108 | 79 | 0 | 0.0 | 1.0 | 0.00 | 0.00 | 0.00 | 50 | 1012.6 |
| 20260901011604 | 81 | 0 | 0.0 | 0.0 | 0.00 | 0.00 | 0.00 | 48 | 1012.4 |
| 20260901010107 | 83 | 0 | 0.0 | 0.0 | 0.00 | 0.00 | 0.00 | 47 | 1012.4 |
| 20260901004603 | 84 | 0 | 0.0 | 2.0 | 0.00 | 0.00 | 0.00 | 45 | 1012.4 |
| 20260901003111 | 85 | 0 | 0.0 | 1.0 | 0.00 | 0.00 | 0.00 | 43 | 1012.3 |
| 20260901001603 | 86 | 0 | 0.0 | 2.0 | 0.00 | 0.00 | 0.00 | 42 | 1012.4 |
| 20260901000106 | 87 | 0 | 0.0 | 1.0 | 0.00 | 0.00 | 0.00 | 40 | 1012.3 |
| 20260831234602 | 88 | 0 | 0.0 | 2.0 | 0.00 | 0.00 | 0.00 | 39 | 1012.4 |
| 20260831233104 | 88 | 234 | 0.0 | 3.0 | 0.00 | 0.00 | 0.00 | 38 | 1012.4 |
| 20260831231614 | 88 | 314 | 0.0 | 3.0 | 0.00 | 0.00 | 0.00 | 39 | 1012.4 |
| 20260831230106 | 88 | 309 | 1.0 | 5.0 | 0.00 | 0.00 | 0.00 | 39 | 1012.4 |
| 20260831224605 | 88 | 0 | 1.0 | 4.0 | 0.00 | 0.00 | 0.00 | 40 | 1012.4 |
| 20260831223110 | 89 | 236 | 2.0 | 5.0 | 0.00 | 0.00 | 0.00 | 38 | 1012.3 |
| 20260831221605 | 89 | 254 | 1.0 | 5.0 | 0.00 | 0.00 | 0.00 | 38 | 1012.3 |
| 20260831220106 | 89 | 248 | 0.0 | 4.0 | 0.00 | 0.00 | 0.00 | 41 | 1012.3 |
| 20260831214605 | 88 | 331 | 0.0 | 4.0 | 0.00 | 0.00 | 0.00 | 42 | 1012.1 |
| 20260831213108 | 88 | 261 | 1.0 | 6.0 | 0.00 | 0.00 | 0.00 | 41 | 1012.2 |
| 20260831211624 | 88 | 331 | 1.0 | 6.0 | 0.00 | 0.00 | 0.00 | 41 | 1012.2 |
| 20260831210110 | 88 | 214 | 2.0 | 7.0 | 0.00 | 0.00 | 0.00 | 41 | 1012.3 |
| 20260831204601 | 88 | 290 | 1.0 | 7.0 | 0.00 | 0.00 | 0.00 | 44 | 1012.3 |
| 20260831203105 | 88 | 334 | 2.0 | 6.0 | 0.00 | 0.00 | 0.00 | 41 | 1012.2 |
| 20260831201610 | 88 | 263 | 2.0 | 6.0 | 0.00 | 0.00 | 0.00 | 41 | 1012.3 |
| 20260831200110 | 87 | 286 | 1.0 | 4.0 | 0.00 | 0.00 | 0.00 | 40 | 1012.0 |
| 20260831194643 | 87 | 308 | 0.0 | 8.0 | 0.00 | 0.00 | 0.00 | 45 | 1012.0 |
| 20260831193102 | 87 | 290 | 1.0 | 6.0 | 0.00 | 0.00 | 0.00 | 47 | 1012.0 |
| 20260831191607 | 86 | 285 | 0.0 | 7.0 | 0.00 | 0.00 | 0.00 | 47 | 1012.0 |
| 20260831190108 | 86 | 222 | 2.0 | 5.0 | 0.00 | 0.00 | 0.00 | 46 | 1012.0 |
| 20260831184602 | 86 | 268 | 1.0 | 7.0 | 0.00 | 0.00 | 0.00 | 48 | 1012.0 |
| 20260831183108 | 85 | 355 | 3.0 | 8.0 | 0.00 | 0.00 | 0.00 | 52 | 1011.9 |
| 20260831181603 | 85 | 250 | 1.0 | 6.0 | 0.00 | 0.00 | 0.00 | 53 | 1012.0 |
| 20260831174601 | 83 | 245 | 2.0 | 6.0 | 0.00 | 0.00 | 0.00 | 51 | 1012.2 |
| 20260831173104 | 83 | 288 | 2.0 | 9.0 | 0.00 | 0.00 | 0.00 | 56 | 1012.3 |
| 20260831171605 | 83 | 321 | 1.0 | 7.0 | 0.00 | 0.00 | 0.00 | 60 | 1012.3 |
| 20260831170105 | 82 | 286 | 2.0 | 9.0 | 0.00 | 0.00 | 0.00 | 66 | 1012.1 |
| 20260831164601 | 81 | 210 | 1.0 | 4.0 | 0.00 | 0.00 | 0.00 | 67 | 1012.1 |
| 20260831163103 | 80 | 321 | 1.0 | 4.0 | 0.00 | 0.00 | 0.00 | 72 | 1011.9 |
| 20260831161605 | 78 | 317 | 1.0 | 7.0 | 0.00 | 0.00 | 0.00 | 75 | 1012.0 |
| 20260831160104 | 77 | 334 | 2.0 | 7.0 | 0.00 | 0.00 | 0.00 | 78 | 1012.0 |
| 20260831154634 | 76 | 0 | 1.0 | 8.0 | 0.00 | 0.00 | 0.00 | 80 | 1011.7 |
| 20260831153118 | 75 | 235 | 3.0 | 7.0 | 0.00 | 0.00 | 0.00 | 82 | 1011.7 |
| 20260831151607 | 74 | 0 | 1.0 | 6.0 | 0.00 | 0.00 | 0.00 | 87 | 1011.4 |